Terug naar catalogus

IRIDIUM 172

ActiefCommunicatiePO
NORAD 43927·PAYLOAD·🇺🇸 United States

Gelanceerd Jan 11, 2019 vanaf Vandenberg Space Force Base

Loading…

Volgende Passages (komende 24 uur)

TLE

VersSource: CelesTrak SupGP

Epoch: Sep 14, 2026, 20:39 UTC

1 43927C 19002F   26257.86076389 -.00001272  00000+0 -45483-3 0  2573
2 43927  86.3975 316.1075 0002310  96.8695  47.0218 14.34218482    17

Volg IRIDIUM 172 in realtime met AllMySat

Download on the App Store